Tracking 29606 objects as of 19-Sep-2024
HD Live streaming from Space Station
objects crossing your sky now

OBJECT A

Track OBJECT A now!
10-day predictions


NORAD ID: 57288
Int'l Code: 2023-095A
Perigee: 1,104.7 km
Apogee: 1,132.0 km
Inclination: 86.5 °
Period: 107.5 minutes
Semi major axis: 7489 km
RCS: Unknown
Launch date: July 9, 2023
Source: People's Republic of China (PRC)
Launch site: Jiuquan Satellite Launch Center, China (JSC)
Your satellite tracking list
Your tracking list is empty




NASA's NSSDC Master Catalog

Two Line Element Set (TLE):
1 57288U 23095A   24262.84020173  .00000103  00000-0  16264-3 0  9996
2 57288  86.5025 224.9135 0018199 156.4381 203.7599 13.39480689 58560
Source of the keplerian elements: AFSPC